Location: Cowley
(49.5667°N, 114.0667°W)
Time: 10:38:07
(UTC+00:00)

Envisat - Pass Details

Date: 10 December 2021
Orbit: 764 x 766 km, 98.2° (Epoch: 23 January)

Event Time Altitude Azimuth Distance (km) Brightness Sun altitude
Rises 01:25:45 0° 226° (SW) 3,225 7.3 -16.7°
Reaches altitude 10° 01:30:22 10° 265° (W) 2,307 6.7 -17.5°
Maximum altitude 01:31:23 11° 276° (W) 2,272 6.5 -17.6°
Drops below altitude 10° 01:32:23 10° 288° (WNW) 2,311 6.3 -17.8°
Sets 01:37:03 0° 327° (NNW) 3,245 6.5 -18.5°
